Location: Gilevgi
(36.8751°N, 30.0581°E)
Time: 04:55:34
(UTC+00:00)

NOSS 2-3 (E) - Pass Details

Date: 11 December 2025
Orbit: 492 x 1706 km, 63.3° (Epoch: 24 April)

Event Time Altitude Azimuth Distance (km) Brightness Sun altitude
Rises 15:06:11 0° 205° (SSW) 2,742 7.8 -4.9°
Reaches altitude 10° 15:08:29 10° 203° (SSW) 1,766 6.7 -5.3°
Maximum altitude 15:12:15 67° 121° (ESE) 539 3.2 -6.0°
Drops below altitude 10° 15:15:53 10° 38° (NE) 1,698 5.3 -6.6°
Enters shadow 15:16:49 - 36° (NE) 2,094 5.7 -6.8°
